Selinsgrove, PA

10:23 AM EDT on August 24, 2016 (GMT -0400)
Penn Valley

Weather History for KSEG - February, 2013

Change the Weather History Date:

Friday, February 8, 2013

  Actual Average (KIPT) Record (KIPT)
Temperature  
Mean Temperature 34 °F 28 °F  
Max Temperature 37 °F 36 °F 53 °F (1932)
Min Temperature 27 °F 20 °F -9 °F (1967)
Degree Days  
Heating Degree Days 32 37  
Month to date heating degree days 297  
Since 1 July heating degree days 3776  
Cooling Degree Days 0 0  
Month to date cooling degree days 0  
Year to date cooling degree days 0  
Moisture  
Dew Point 29 °F    
Average Humidity 84    
Maximum Humidity 96    
Minimum Humidity 64    
Precipitation  
Precipitation 0.19 in 0.09 in 0.67 in (1942)
Month to date precipitation 0.68  
Year to date precipitation 3.38  
Snow  
Snow 0.00 in 0.30 in 7.50 in (1895)
Month to date snowfall 2.6  
Since 1 July snowfall 21.8  
Snow Depth -    
Sea Level Pressure  
Sea Level Pressure 29.90 in    
Wind  
Wind Speed 3 mph (WNW)    
Max Wind Speed 15 mph    
Max Gust Speed 28 mph    
Visibility 6 miles    
Events Fog , Rain , Snow    
T = Trace of Precipitation, MM = Missing Value Source: NWS Daily Summary

Daily Weather History Graph

Daily Weather History Graph

Search for Another Location

Airport or City:

Trip Planner

Search our weather history database for the weather conditions in past years. The results will help you decide how hot, cold, wet, or windy it might be!

Date:

Astronomy

Feb. 08, 2013 Rise Set
Actual Time 7:09 AM EST 5:33 PM EST
Civil Twilight 6:41 AM EST 6:02 PM EST
Nautical Twilight 6:09 AM EST 6:34 PM EST
Astronomical Twilight 5:37 AM EST 7:06 PM EST
Moon 5:37 AM EST (2/8) 4:04 PM EST (2/8)
Length of Visible Light 11h 21m
Length of Day
10h 24m
Waning Crescent, 3% of the Moon is Illuminated
Feb 8
Waning Crescent
Feb 10
New
Feb 17
First Quarter
Feb 25
Full
Mar 4
Last Quarter

Hourly Weather History & Observations

Time (EST) Temp. Windchill Dew Point Humidity Pressure Visibility Wind Dir Wind Speed Gust Speed Precip Events Conditions
12:53 AM 32.0 °F 26.4 °F 21.0 °F 64% 30.22 in 10.0 mi ESE 5.8 mph - N/A   Overcast
1:53 AM 32.0 °F - 21.0 °F 64% 30.19 in 10.0 mi Calm Calm - N/A   Overcast
2:53 AM 32.0 °F - 21.9 °F 66% 30.16 in 10.0 mi Calm Calm - N/A   Overcast
3:53 AM 33.1 °F - 24.1 °F 70% 30.13 in 10.0 mi Calm Calm - N/A   Overcast
4:53 AM 34.0 °F 29.8 °F 26.1 °F 73% 30.09 in 10.0 mi SSE 4.6 mph - N/A   Overcast
5:53 AM 34.0 °F 29.8 °F 28.0 °F 79% 30.08 in 10.0 mi South 4.6 mph - N/A   Overcast
6:53 AM 34.0 °F - 28.9 °F 82% 30.06 in 10.0 mi Calm Calm - N/A   Overcast
7:00 AM 33.8 °F 27.7 °F 28.4 °F 81% 30.04 in 10.0 mi SE 6.9 mph - N/A   Overcast
7:53 AM 34.0 °F 27.2 °F 30.0 °F 85% 30.04 in 7.0 mi SSE 8.1 mph - 0.00 in   Overcast
8:53 AM 34.0 °F 29.8 °F 30.0 °F 85% 30.01 in 8.0 mi South 4.6 mph - N/A   Overcast
9:53 AM 35.1 °F - 30.9 °F 85% 29.98 in 8.0 mi Calm Calm - N/A   Overcast
10:53 AM 36.0 °F - 32.0 °F 86% 29.95 in 10.0 mi Calm Calm - N/A   Overcast
11:53 AM 37.0 °F 33.3 °F 30.9 °F 79% 29.90 in 10.0 mi ENE 4.6 mph - N/A   Overcast
12:03 PM 37.4 °F 32.8 °F 30.2 °F 75% 29.88 in 10.0 mi East 5.8 mph - N/A   Overcast
12:53 PM 36.0 °F 29.6 °F 32.0 °F 86% 29.86 in 9.0 mi NNW 8.1 mph - N/A   Overcast
1:53 PM 37.9 °F - 33.1 °F 83% 29.81 in 8.0 mi Calm Calm - N/A   Overcast
2:53 PM 37.0 °F 34.5 °F 32.0 °F 82% 29.79 in 10.0 mi NW 3.5 mph - 0.00 in Rain Light Rain
3:28 PM 35.6 °F 29.9 °F 32.0 °F 87% 29.78 in 1.8 mi WNW 6.9 mph - 0.02 in Snow Light Snow
3:53 PM 34.0 °F 31.0 °F 32.0 °F 92% 29.80 in 1.2 mi NW 3.5 mph - 0.05 in Snow Light Snow
4:01 PM 33.8 °F 30.8 °F 32.0 °F 93% 29.79 in 1.0 mi NW 3.5 mph - 0.01 in Snow Light Snow
4:08 PM 33.8 °F 30.8 °F 32.0 °F 93% 29.79 in 0.8 mi NW 3.5 mph - 0.01 in Snow Light Snow
4:53 PM 33.1 °F - 32.0 °F 96% 29.81 in 0.5 mi Calm Calm - 0.07 in Fog , Snow Snow
5:43 PM 33.8 °F - 30.2 °F 87% 29.79 in 1.0 mi Calm Calm - 0.04 in Snow Light Snow
5:53 PM 33.1 °F - 32.0 °F 96% 29.80 in 1.0 mi Calm Calm - 0.05 in Snow Light Snow
6:39 PM 33.8 °F - 32.0 °F 93% 29.79 in 1.2 mi Calm Calm - 0.01 in Snow Light Snow
6:44 PM 33.8 °F - 32.0 °F 93% 29.79 in 1.0 mi Calm Calm - 0.01 in Snow Light Snow
6:53 PM 33.1 °F - 32.0 °F 96% 29.81 in 1.0 mi Calm Calm - 0.01 in   Overcast
7:03 PM 33.8 °F - 32.0 °F 93% 29.80 in 0.8 mi Calm Calm - 0.00 in Snow Light Snow
7:15 PM 33.8 °F - 32.0 °F 93% 29.80 in 0.8 mi Calm Calm - 0.01 in Snow Light Snow
7:23 PM 33.8 °F - 32.0 °F 93% 29.80 in 1.0 mi Calm Calm - 0.01 in Snow Light Snow
7:31 PM 33.8 °F - 32.0 °F 93% 29.80 in 1.8 mi Calm Calm - 0.01 in Snow Light Snow
7:45 PM 33.8 °F - 32.0 °F 93% 29.80 in 2.0 mi Calm Calm - 0.01 in Snow Light Snow
7:53 PM 33.1 °F - 32.0 °F 96% 29.82 in 2.5 mi Calm Calm - 0.01 in   Overcast
8:11 PM 33.8 °F - 32.0 °F 93% 29.80 in 4.0 mi Calm Calm - 0.00 in   Overcast
8:53 PM 35.1 °F 27.9 °F 28.9 °F 78% 29.83 in 7.0 mi West 9.2 mph 17.3 mph 0.00 in Snow Light Snow
9:53 PM 33.1 °F 23.4 °F 25.0 °F 72% 29.86 in 9.0 mi WNW 13.8 mph 26.5 mph 0.00 in Snow Light Snow
10:21 PM 32.0 °F 22.5 °F 23.0 °F 69% 29.86 in 10.0 mi WNW 12.7 mph 27.6 mph 0.00 in   Overcast
10:53 PM 30.0 °F 20.0 °F 21.0 °F 69% 29.90 in 10.0 mi WNW 12.7 mph 23.0 mph 0.00 in   Overcast
11:53 PM 27.0 °F 15.2 °F 18.0 °F 69% 29.95 in 5.0 mi WNW 15.0 mph 26.5 mph 0.00 in Snow Light Snow